Meridian, MS

9:14 PM CST on November 16, 2019 (GMT -0600)
Key

Weather History for KMEI - September, 2019

Change the Weather History Date:

Tuesday, September 17, 2019

  Actual Average Record
Temperature  
Mean Temperature 86 °F 75 °F  
Max Temperature 102 °F 87 °F 99 °F (1953)
Min Temperature 70 °F 63 °F 49 °F (1961)
Degree Days  
Heating Degree Days 0 0  
Month to date heating degree days 0 0  
Since 1 July heating degree days 0 0  
Cooling Degree Days 22 10  
Month to date cooling degree days 334 204  
Year to date cooling degree days 2417 1824  
Growing Degree Days 36 (Base 50)    
Moisture  
Dew Point 67 °F    
Average Humidity 60    
Maximum Humidity 90    
Minimum Humidity 29    
Precipitation  
Precipitation 0.00 in 0.11 in 1.70 in (1913)
Month to date precipitation 0.01 1.94  
Year to date precipitation 42.96 40.90  
Sea Level Pressure  
Sea Level Pressure 29.98 in    
Wind  
Wind Speed 2 mph ()    
Max Wind Speed 13 mph    
Max Gust Speed 15 mph    
Visibility 10.0 miles    
Events      
T = Trace of Precipitation, MM = Missing Value Source: Averaged Metar Reports

Daily Weather History Graph

Daily Weather History Graph

Search for Another Location

Airport or City:

Astronomy

Sep. 17, 2019 Rise Set
Actual Time 6:39 AM CDT 6:58 PM CDT
Civil Twilight 6:15 AM CDT 7:23 PM CDT
Nautical Twilight 5:46 AM CDT 7:51 PM CDT
Astronomical Twilight 5:17 AM CDT 8:20 PM CDT
Moon 9:12 PM CDT 9:35 AM CDT
Length of Visible Light 13h 07m
Length of Day
12h 18m
Waning Gibbous, 89% of the Moon is Illuminated
Sep 17
Waning Gibbous
Sep 21
Last Quarter
Sep 28
New
Oct 5
First Quarter
Oct 13
Full

Hourly Weather History & Observations

Time (CDT) Temp. Heat Index Dew Point Humidity Pressure Visibility Wind Dir Wind Speed Gust Speed Precip Events Conditions
12:58 AM 73.9 °F - 69.1 °F 85% 30.00 in 10.0 mi SSW 3.5 mph - N/A   Clear
1:58 AM 73.9 °F - 69.1 °F 85% 29.99 in 10.0 mi South 3.5 mph - N/A   Clear
2:58 AM 73.0 °F - 69.1 °F 87% 29.99 in 10.0 mi Calm Calm - N/A   Clear
4:58 AM 72.0 °F - 68.0 °F 87% 29.99 in 10.0 mi Calm Calm - N/A   Clear
5:58 AM 71.1 °F - 68.0 °F 90% 30.01 in 10.0 mi Calm Calm - N/A   Clear
6:58 AM 71.1 °F - 66.9 °F 87% 30.03 in 10.0 mi Calm Calm - N/A   Clear
7:58 AM 77.0 °F - 70.0 °F 79% 30.03 in 10.0 mi Calm Calm - N/A   Clear
8:58 AM 82.9 °F 87.5 °F 71.1 °F 67% 30.03 in 10.0 mi Variable 3.5 mph - N/A   Clear
9:58 AM 91.9 °F 97.4 °F 70.0 °F 48% 30.03 in 10.0 mi NNW 8.1 mph - N/A   Clear
10:58 AM 96.1 °F 101.0 °F 68.0 °F 40% 30.03 in 10.0 mi Variable 3.5 mph - N/A   Clear
11:58 AM 98.1 °F 100.7 °F 64.0 °F 33% 30.02 in 10.0 mi NE 5.8 mph - N/A   Clear
12:58 PM 100.0 °F 101.8 °F 63.0 °F 29% 30.00 in 10.0 mi SE 5.8 mph - N/A   Clear
1:58 PM 99.0 °F 100.5 °F 62.1 °F 30% 29.98 in 10.0 mi Variable 3.5 mph - N/A   Clear
2:58 PM 100.9 °F 103.3 °F 63.0 °F 29% 29.95 in 10.0 mi Variable 5.8 mph - N/A   Mostly Cloudy
3:58 PM 99.0 °F 100.5 °F 62.1 °F 30% 29.93 in 10.0 mi SW 4.6 mph - N/A   Clear
4:58 PM 100.9 °F 103.3 °F 63.0 °F 29% 29.92 in 10.0 mi NW 5.8 mph - N/A   Mostly Cloudy
5:58 PM 97.0 °F 99.9 °F 64.9 °F 35% 29.92 in 10.0 mi NNW 8.1 mph - N/A   Mostly Cloudy
6:58 PM 88.0 °F 92.1 °F 69.1 °F 53% 29.93 in 10.0 mi NNW 3.5 mph - N/A   Clear
7:58 PM 84.0 °F 88.4 °F 70.0 °F 63% 29.94 in 10.0 mi SW 3.5 mph - N/A   Clear
8:58 PM 81.0 °F 84.1 °F 69.1 °F 67% 29.96 in 10.0 mi Calm Calm - N/A   Clear
9:58 PM 78.1 °F - 69.1 °F 74% 29.97 in 10.0 mi Calm Calm - N/A   Clear
10:58 PM 75.9 °F - 69.1 °F 79% 29.96 in 10.0 mi Calm Calm - N/A   Clear
11:58 PM 75.0 °F - 69.1 °F 82% 29.96 in 10.0 mi Calm Calm - N/A   Partly Cloudy